This is the latest recevied weather packets stored in our database for station/object WW3TRG. If no packets are shown the sender has not sent any weather packets the latest 10 day(s).
| Time | Temp. | Humidity | Pressure | Rain* | Wind** | Luminosity | Snow |
|---|---|---|---|---|---|---|---|
| 1777515801 | 9.44° C | 99% | 1009.1 hPa | 1.78 mm | - | 0 W/m² | - |
| 1777515498 | 9.44° C | 99% | 1009.3 hPa | 2.29 mm | - | 0 W/m² | - |
| 1777515195 | 9.44° C | 99% | 1009.2 hPa | 2.29 mm | - | 0 W/m² | - |
| 1777514891 | 10° C | 99% | 1009 hPa | 1.78 mm | - | 0 W/m² | - |
| 1777514587 | 9.44° C | 99% | 1009.1 hPa | 0.51 mm | - | 0 W/m² | - |
| 1777514285 | 10° C | 99% | 1009 hPa | 0 mm | - | 0 W/m² | - |
| 1777513981 | 10° C | 99% | 1009.1 hPa | 0 mm | - | 0 W/m² | - |
| 1777513679 | 10° C | 99% | 1008.8 hPa | 0 mm | - | 0 W/m² | - |
| 1777513376 | 10° C | 99% | 1008.5 hPa | 0 mm | - | 0 W/m² | - |
| 1777513071 | 10° C | 99% | 1008.9 hPa | 0 mm | - | 0 W/m² | - |
| 1777512767 | 10° C | 99% | 1008.9 hPa | 0 mm | - | 0 W/m² | - |
| 1777512464 | 10° C | 99% | 1008.9 hPa | 0.51 mm | - | 0 W/m² | - |
| 1777512161 | 10° C | 99% | 1008.9 hPa | 0.51 mm | - | 0 W/m² | - |
| 1777511859 | 10° C | 99% | 1008.5 hPa | 1.27 mm | - | 0 W/m² | - |
| 1777511556 | 10° C | 99% | 1009 hPa | 3.56 mm | - | 0 W/m² | - |
| 1777511254 | 10° C | 99% | 1008.6 hPa | 3.05 mm | - | 0 W/m² | - |
| 1777510954 | 10° C | 99% | 1007.8 hPa | 4.83 mm | - | 0 W/m² | - |
| 1777510651 | 10° C | 99% | 1008.4 hPa | 7.11 mm | - | 0 W/m² | - |
| 1777510347 | 10° C | 99% | 1008.6 hPa | 7.11 mm | - | 0 W/m² | - |
| 1777510044 | 10.56° C | 99% | 1008.7 hPa | 7.11 mm | - | 0 W/m² | - |
| 1777509740 | 10.56° C | 99% | 1008.8 hPa | 4.83 mm | - | 0 W/m² | - |
| 1777509436 | 10.56° C | 99% | 1008.8 hPa | 4.32 mm | - | 0 W/m² | - |
| 1777509134 | 10.56° C | 99% | 1009 hPa | 4.32 mm | - | 0 W/m² | - |
| 1777508831 | 10.56° C | 99% | 1008.9 hPa | 3.05 mm | - | 0 W/m² | - |
| 1777508528 | 10.56° C | 99% | 1008.8 hPa | 1.78 mm | - | 0 W/m² | - |
* Rain latest hour (hover to see other rain measurements)
** Current wind speed in m/s (hover to see current wind gust speed)